owner,sensor,date,latitude,longitude,mass_concentration_of_chlorophyll_in_sea_water,qcFlag 
FWRI,ioos:station:FWRI:NPD:2,2012-11-01T00:59:00Z,27.3338,-82.5794,5.164,1111122 
FWRI,ioos:station:FWRI:NPD:2,2012-11-01T01:59:00Z,27.3338,-82.5794,-1.667,1111122 
FWRI,ioos:station:FWRI:NPD:2,2012-11-01T02:59:00Z,27.3338,-82.5794,5.417,1111122 
FWRI,ioos:station:FWRI:NPD:2,2012-11-01T03:59:00Z,27.3338,-82.5794,9.971,1111122 
FWRI,ioos:station:FWRI:NPD:2,2012-11-01T04:59:00Z,27.3338,-82.5794,1.622,1111122 
FWRI,ioos:station:FWRI:NPD:2,2012-11-01T05:59:00Z,27.3338,-82.5794,7.188,1111122 
FWRI,ioos:station:FWRI:NPD:2,2012-11-01T06:59:00Z,27.3338,-82.5794,-1.667,1111122 
FWRI,ioos:station:FWRI:NPD:2,2012-11-01T07:59:00Z,27.3338,-82.5794,11.995,1111122 
FWRI,ioos:station:FWRI:NPD:2,2012-11-01T08:59:00Z,27.3338,-82.5794,6.935,1111122 
FWRI,ioos:station:FWRI:NPD:2,2012-11-01T09:59:00Z,27.3338,-82.5794,-1.92,1111122 
FWRI,ioos:station:FWRI:NPD:2,2012-11-01T10:59:00Z,27.3338,-82.5794,4.911,1111122 
FWRI,ioos:station:FWRI:NPD:2,2012-11-01T11:59:00Z,27.3338,-82.5794,6.935,1111122 
FWRI,ioos:station:FWRI:NPD:2,2012-11-01T12:59:00Z,27.3338,-82.5794,0.863,1111122 
FWRI,ioos:station:FWRI:NPD:2,2012-11-01T14:59:00Z,27.3338,-82.5794,-0.655,1111122 
FWRI,ioos:station:FWRI:NPD:2,2012-11-01T15:59:00Z,27.3338,-82.5794,5.417,1111122 
FWRI,ioos:station:FWRI:NPD:2,2012-11-01T16:59:00Z,27.3338,-82.5794,0.357,1111122 
FWRI,ioos:station:FWRI:NPD:2,2012-11-01T23:59:00Z,27.3338,-82.5794,6.429,1111122 
FWRI,ioos:station:FWRI:NPD:2,2012-11-02T00:59:00Z,27.3338,-82.5794,5.417,1111122 
FWRI,ioos:station:FWRI:NPD:2,2012-11-02T01:59:00Z,27.3338,-82.5794,5.923,1111122 
FWRI,ioos:station:FWRI:NPD:2,2012-11-02T02:59:00Z,27.3338,-82.5794,5.923,1111122 
FWRI,ioos:station:FWRI:NPD:2,2012-11-02T03:59:00Z,27.3338,-82.5794,8.706,1111122 
FWRI,ioos:station:FWRI:NPD:2,2012-11-02T04:59:00Z,27.3338,-82.5794,6.429,1111122 
FWRI,ioos:station:FWRI:NPD:2,2012-11-02T05:59:00Z,27.3338,-82.5794,5.67,1111122 
FWRI,ioos:station:FWRI:NPD:2,2012-11-02T06:59:00Z,27.3338,-82.5794,6.429,1111122 
FWRI,ioos:station:FWRI:NPD:2,2012-11-02T07:59:00Z,27.3338,-82.5794,4.152,1111122 
FWRI,ioos:station:FWRI:NPD:2,2012-11-02T08:59:00Z,27.3338,-82.5794,4.405,1111122 
FWRI,ioos:station:FWRI:NPD:2,2012-11-02T09:59:00Z,27.3338,-82.5794,5.164,1111122 
FWRI,ioos:station:FWRI:NPD:2,2012-11-02T10:59:00Z,27.3338,-82.5794,5.67,1111122 
FWRI,ioos:station:FWRI:NPD:2,2012-11-02T20:59:00Z,27.3338,-82.5794,3.899,1111122 
FWRI,ioos:station:FWRI:NPD:2,2012-11-02T21:59:00Z,27.3338,-82.5794,5.417,1111122 
FWRI,ioos:station:FWRI:NPD:2,2012-11-02T22:59:00Z,27.3338,-82.5794,4.911,1111122 
FWRI,ioos:station:FWRI:NPD:2,2012-11-02T23:59:00Z,27.3338,-82.5794,5.67,1111122 
FWRI,ioos:station:FWRI:NPD:2,2012-11-03T00:59:00Z,27.3338,-82.5794,4.405,1111122 
FWRI,ioos:station:FWRI:NPD:2,2012-11-03T01:59:00Z,27.3338,-82.5794,6.176,1111122 
FWRI,ioos:station:FWRI:NPD:2,2012-11-03T02:59:00Z,27.3338,-82.5794,6.429,1111122 
FWRI,ioos:station:FWRI:NPD:2,2012-11-03T03:59:00Z,27.3338,-82.5794,6.176,1111122 
FWRI,ioos:station:FWRI:NPD:2,2012-11-03T04:59:00Z,27.3338,-82.5794,5.417,1111122 
FWRI,ioos:station:FWRI:NPD:2,2012-11-03T05:59:00Z,27.3338,-82.5794,3.899,1111122 
FWRI,ioos:station:FWRI:NPD:2,2012-11-03T06:59:00Z,27.3338,-82.5794,3.899,1111122 
FWRI,ioos:station:FWRI:NPD:2,2012-11-03T07:59:00Z,27.3338,-82.5794,2.887,1111122 
FWRI,ioos:station:FWRI:NPD:2,2012-11-03T08:59:00Z,27.3338,-82.5794,2.381,1111122 
FWRI,ioos:station:FWRI:NPD:2,2012-11-03T09:59:00Z,27.3338,-82.5794,3.899,1111122 
FWRI,ioos:station:FWRI:NPD:2,2012-11-03T10:59:00Z,27.3338,-82.5794,7.188,1111122 
FWRI,ioos:station:FWRI:NPD:2,2012-11-03T17:59:00Z,27.3338,-82.5794,6.682,1111122 
FWRI,ioos:station:FWRI:NPD:2,2012-11-03T18:59:00Z,27.3338,-82.5794,6.935,1111122 
FWRI,ioos:station:FWRI:NPD:2,2012-11-03T19:59:00Z,27.3338,-82.5794,3.899,1111122 
FWRI,ioos:station:FWRI:NPD:2,2012-11-03T20:59:00Z,27.3338,-82.5794,10.477,1111122 
FWRI,ioos:station:FWRI:NPD:2,2012-11-03T21:59:00Z,27.3338,-82.5794,5.923,1111122 
FWRI,ioos:station:FWRI:NPD:2,2012-11-03T22:59:00Z,27.3338,-82.5794,6.682,1111122 
FWRI,ioos:station:FWRI:NPD:2,2012-11-03T23:59:00Z,27.3338,-82.5794,5.67,1111122 
FWRI,ioos:station:FWRI:NPD:2,2012-11-04T00:59:00Z,27.3338,-82.5794,7.188,1111122 
FWRI,ioos:station:FWRI:NPD:2,2012-11-04T01:59:00Z,27.3338,-82.5794,9.212,1111122 
FWRI,ioos:station:FWRI:NPD:2,2012-11-04T02:59:00Z,27.3338,-82.5794,6.935,1111122 
FWRI,ioos:station:FWRI:NPD:2,2012-11-04T03:59:00Z,27.3338,-82.5794,7.188,1111122 
FWRI,ioos:station:FWRI:NPD:2,2012-11-04T04:59:00Z,27.3338,-82.5794,5.417,1111122 
FWRI,ioos:station:FWRI:NPD:2,2012-11-04T05:59:00Z,27.3338,-82.5794,4.405,1111122 
FWRI,ioos:station:FWRI:NPD:2,2012-11-04T06:59:00Z,27.3338,-82.5794,4.152,1111122 
FWRI,ioos:station:FWRI:NPD:2,2012-11-04T07:59:00Z,27.3338,-82.5794,3.393,1111122 
FWRI,ioos:station:FWRI:NPD:2,2012-11-04T08:59:00Z,27.3338,-82.5794,1.369,1111122 
FWRI,ioos:station:FWRI:NPD:2,2012-11-04T09:59:00Z,27.3338,-82.5794,1.622,1111122 
FWRI,ioos:station:FWRI:NPD:2,2012-11-04T10:59:00Z,27.3338,-82.5794,4.152,1111122 
FWRI,ioos:station:FWRI:NPD:2,2012-11-04T17:59:00Z,27.3338,-82.5794,-1.92,1111122 
FWRI,ioos:station:FWRI:NPD:2,2012-11-04T21:59:00Z,27.3338,-82.5794,8.453,1111122 
FWRI,ioos:station:FWRI:NPD:2,2012-11-04T22:59:00Z,27.3338,-82.5794,8.706,1111122 
FWRI,ioos:station:FWRI:NPD:2,2012-11-04T23:59:00Z,27.3338,-82.5794,7.441,1111122 
FWRI,ioos:station:FWRI:NPD:2,2012-11-05T00:59:00Z,27.3338,-82.5794,8.959,1111122 
FWRI,ioos:station:FWRI:NPD:2,2012-11-05T01:59:00Z,27.3338,-82.5794,8.706,1111122 
FWRI,ioos:station:FWRI:NPD:2,2012-11-05T02:59:00Z,27.3338,-82.5794,6.429,1111122 
FWRI,ioos:station:FWRI:NPD:2,2012-11-05T03:59:00Z,27.3338,-82.5794,6.935,1111122 
FWRI,ioos:station:FWRI:NPD:2,2012-11-05T04:59:00Z,27.3338,-82.5794,6.176,1111122 
FWRI,ioos:station:FWRI:NPD:2,2012-11-05T05:59:00Z,27.3338,-82.5794,6.935,1111122 
FWRI,ioos:station:FWRI:NPD:2,2012-11-05T06:59:00Z,27.3338,-82.5794,5.67,1111122 
FWRI,ioos:station:FWRI:NPD:2,2012-11-05T07:59:00Z,27.3338,-82.5794,5.417,1111122 
FWRI,ioos:station:FWRI:NPD:2,2012-11-05T08:59:00Z,27.3338,-82.5794,5.417,1111122 
FWRI,ioos:station:FWRI:NPD:2,2012-11-05T09:59:00Z,27.3338,-82.5794,4.911,1111122 
FWRI,ioos:station:FWRI:NPD:2,2012-11-05T10:59:00Z,27.3338,-82.5794,5.923,1111122 
FWRI,ioos:station:FWRI:NPD:2,2012-11-05T11:59:00Z,27.3338,-82.5794,2.887,1111122 
FWRI,ioos:station:FWRI:NPD:2,2012-11-05T12:59:00Z,27.3338,-82.5794,3.899,1111122 
FWRI,ioos:station:FWRI:NPD:2,2012-11-05T14:59:00Z,27.3338,-82.5794,4.658,1111122 
FWRI,ioos:station:FWRI:NPD:2,2012-11-05T23:59:00Z,27.3338,-82.5794,13.007,1111122 
FWRI,ioos:station:FWRI:NPD:2,2012-11-06T00:59:00Z,27.3338,-82.5794,14.778,1111122 
FWRI,ioos:station:FWRI:NPD:2,2012-11-06T01:59:00Z,27.3338,-82.5794,12.248,1111122 
FWRI,ioos:station:FWRI:NPD:2,2012-11-06T02:59:00Z,27.3338,-82.5794,11.742,1111122 
FWRI,ioos:station:FWRI:NPD:2,2012-11-06T03:59:00Z,27.3338,-82.5794,13.513,1111122 
FWRI,ioos:station:FWRI:NPD:2,2012-11-06T04:59:00Z,27.3338,-82.5794,12.501,1111122 
FWRI,ioos:station:FWRI:NPD:2,2012-11-06T05:59:00Z,27.3338,-82.5794,11.995,1111122 
FWRI,ioos:station:FWRI:NPD:2,2012-11-06T06:59:00Z,27.3338,-82.5794,10.983,1111122 
FWRI,ioos:station:FWRI:NPD:2,2012-11-06T07:59:00Z,27.3338,-82.5794,12.501,1111122 
FWRI,ioos:station:FWRI:NPD:2,2012-11-06T08:59:00Z,27.3338,-82.5794,15.284,1111122 
FWRI,ioos:station:FWRI:NPD:2,2012-11-06T09:59:00Z,27.3338,-82.5794,11.995,1111122 
FWRI,ioos:station:FWRI:NPD:2,2012-11-06T10:59:00Z,27.3338,-82.5794,8.706,1111122 
FWRI,ioos:station:FWRI:NPD:2,2012-11-06T11:59:00Z,27.3338,-82.5794,8.959,1111122 
FWRI,ioos:station:FWRI:NPD:2,2012-11-06T12:59:00Z,27.3338,-82.5794,6.176,1111122 
FWRI,ioos:station:FWRI:NPD:2,2012-11-06T13:59:00Z,27.3338,-82.5794,7.441,1111122 
FWRI,ioos:station:FWRI:NPD:2,2012-11-06T14:59:00Z,27.3338,-82.5794,9.718,1111122 
FWRI,ioos:station:FWRI:NPD:2,2012-11-06T15:59:00Z,27.3338,-82.5794,9.718,1111122 
FWRI,ioos:station:FWRI:NPD:2,2012-11-06T18:59:00Z,27.3338,-82.5794,11.742,1111122 
FWRI,ioos:station:FWRI:NPD:2,2012-11-06T20:59:00Z,27.3338,-82.5794,8.959,1111122 
FWRI,ioos:station:FWRI:NPD:2,2012-11-06T21:59:00Z,27.3338,-82.5794,12.754,1111122 
FWRI,ioos:station:FWRI:NPD:2,2012-11-06T22:59:00Z,27.3338,-82.5794,15.284,1111122 
FWRI,ioos:station:FWRI:NPD:2,2012-11-06T23:59:00Z,27.3338,-82.5794,19.332,1111122 
FWRI,ioos:station:FWRI:NPD:2,2012-11-07T00:59:00Z,27.3338,-82.5794,22.621,1111122 
FWRI,ioos:station:FWRI:NPD:2,2012-11-07T01:59:00Z,27.3338,-82.5794,14.019,1111122 
FWRI,ioos:station:FWRI:NPD:2,2012-11-07T02:59:00Z,27.3338,-82.5794,18.573,1111122 
FWRI,ioos:station:FWRI:NPD:2,2012-11-07T03:59:00Z,27.3338,-82.5794,15.031,1111122 
FWRI,ioos:station:FWRI:NPD:2,2012-11-07T04:59:00Z,27.3338,-82.5794,14.272,1111122 
FWRI,ioos:station:FWRI:NPD:2,2012-11-07T06:59:00Z,27.3338,-82.5794,14.778,1111122 
FWRI,ioos:station:FWRI:NPD:2,2012-11-07T07:59:00Z,27.3338,-82.5794,10.477,1111122 
FWRI,ioos:station:FWRI:NPD:2,2012-11-07T08:59:00Z,27.3338,-82.5794,8.706,1111122 
FWRI,ioos:station:FWRI:NPD:2,2012-11-07T09:59:00Z,27.3338,-82.5794,11.742,1111122 
FWRI,ioos:station:FWRI:NPD:2,2012-11-07T10:59:00Z,27.3338,-82.5794,9.971,1111122 
FWRI,ioos:station:FWRI:NPD:2,2012-11-07T11:59:00Z,27.3338,-82.5794,9.718,1111122 
FWRI,ioos:station:FWRI:NPD:2,2012-11-07T13:59:00Z,27.3338,-82.5794,9.212,1111122 
FWRI,ioos:station:FWRI:NPD:2,2012-11-07T14:59:00Z,27.3338,-82.5794,7.188,1111122 
FWRI,ioos:station:FWRI:NPD:2,2012-11-07T16:59:00Z,27.3338,-82.5794,11.489,1111122 
FWRI,ioos:station:FWRI:NPD:2,2012-11-08T00:59:00Z,27.3338,-82.5794,-1.92,1111122 
FWRI,ioos:station:FWRI:NPD:2,2012-11-08T02:59:00Z,27.3338,-82.5794,-1.667,1111122 
FWRI,ioos:station:FWRI:NPD:2,2012-11-10T16:59:00Z,27.3338,-82.5794,-1.667,1111122 
FWRI,ioos:station:FWRI:NPD:2,2012-11-11T01:59:00Z,27.3338,-82.5794,6.935,1111122 
FWRI,ioos:station:FWRI:NPD:2,2012-11-11T02:59:00Z,27.3338,-82.5794,6.176,1111122 
FWRI,ioos:station:FWRI:NPD:2,2012-11-11T03:59:00Z,27.3338,-82.5794,7.947,1111122 
FWRI,ioos:station:FWRI:NPD:2,2012-11-11T04:59:00Z,27.3338,-82.5794,6.429,1111122 
FWRI,ioos:station:FWRI:NPD:2,2012-11-11T05:59:00Z,27.3338,-82.5794,7.947,1111122 
FWRI,ioos:station:FWRI:NPD:2,2012-11-11T06:59:00Z,27.3338,-82.5794,7.947,1111122 
FWRI,ioos:station:FWRI:NPD:2,2012-11-11T07:59:00Z,27.3338,-82.5794,8.706,1111122 
FWRI,ioos:station:FWRI:NPD:2,2012-11-11T08:59:00Z,27.3338,-82.5794,9.718,1111122 
FWRI,ioos:station:FWRI:NPD:2,2012-11-11T13:59:00Z,27.3338,-82.5794,-1.667,1111122 
FWRI,ioos:station:FWRI:NPD:2,2012-11-11T16:59:00Z,27.3338,-82.5794,3.646,1111122 
FWRI,ioos:station:FWRI:NPD:2,2012-11-11T17:59:00Z,27.3338,-82.5794,4.152,1111122 
FWRI,ioos:station:FWRI:NPD:2,2012-11-11T18:59:00Z,27.3338,-82.5794,4.658,1111122 
FWRI,ioos:station:FWRI:NPD:2,2012-11-11T19:59:00Z,27.3338,-82.5794,4.658,1111122 
FWRI,ioos:station:FWRI:NPD:2,2012-11-11T21:59:00Z,27.3338,-82.5794,6.176,1111122 
FWRI,ioos:station:FWRI:NPD:2,2012-11-12T00:59:00Z,27.3338,-82.5794,9.465,1111122 
FWRI,ioos:station:FWRI:NPD:2,2012-11-12T01:59:00Z,27.3338,-82.5794,6.682,1111122 
FWRI,ioos:station:FWRI:NPD:2,2012-11-12T02:59:00Z,27.3338,-82.5794,6.176,1111122 
FWRI,ioos:station:FWRI:NPD:2,2012-11-12T03:59:00Z,27.3338,-82.5794,5.417,1111122 
FWRI,ioos:station:FWRI:NPD:2,2012-11-12T04:59:00Z,27.3338,-82.5794,5.164,1111122 
FWRI,ioos:station:FWRI:NPD:2,2012-11-12T05:59:00Z,27.3338,-82.5794,4.911,1111122 
FWRI,ioos:station:FWRI:NPD:2,2012-11-12T06:59:00Z,27.3338,-82.5794,6.429,1111122 
FWRI,ioos:station:FWRI:NPD:2,2012-11-12T07:59:00Z,27.3338,-82.5794,6.682,1111122 
FWRI,ioos:station:FWRI:NPD:2,2012-11-12T08:59:00Z,27.3338,-82.5794,8.2,1111122 
FWRI,ioos:station:FWRI:NPD:2,2012-11-12T18:59:00Z,27.3338,-82.5794,3.14,1111122 
FWRI,ioos:station:FWRI:NPD:2,2012-11-12T19:59:00Z,27.3338,-82.5794,4.658,1111122 
FWRI,ioos:station:FWRI:NPD:2,2012-11-13T00:59:00Z,27.3338,-82.5794,8.453,1111122 
FWRI,ioos:station:FWRI:NPD:2,2012-11-13T01:59:00Z,27.3338,-82.5794,6.682,1111122 
FWRI,ioos:station:FWRI:NPD:2,2012-11-13T02:59:00Z,27.3338,-82.5794,5.164,1111122 
FWRI,ioos:station:FWRI:NPD:2,2012-11-13T03:59:00Z,27.3338,-82.5794,7.441,1111122 
FWRI,ioos:station:FWRI:NPD:2,2012-11-13T04:59:00Z,27.3338,-82.5794,5.67,1111122 
FWRI,ioos:station:FWRI:NPD:2,2012-11-13T05:59:00Z,27.3338,-82.5794,5.164,1111122 
FWRI,ioos:station:FWRI:NPD:2,2012-11-13T06:59:00Z,27.3338,-82.5794,4.152,1111122 
FWRI,ioos:station:FWRI:NPD:2,2012-11-13T07:59:00Z,27.3338,-82.5794,4.658,1111122 
FWRI,ioos:station:FWRI:NPD:2,2012-11-13T08:59:00Z,27.3338,-82.5794,3.646,1111122 
FWRI,ioos:station:FWRI:NPD:2,2012-11-13T10:59:00Z,27.3338,-82.5794,-1.92,1111122 
FWRI,ioos:station:FWRI:NPD:2,2012-11-13T21:59:00Z,27.3338,-82.5794,9.718,1111122 
FWRI,ioos:station:FWRI:NPD:2,2012-11-13T22:59:00Z,27.3338,-82.5794,8.706,1111122 
FWRI,ioos:station:FWRI:NPD:2,2012-11-13T23:59:00Z,27.3338,-82.5794,9.212,1111122 
FWRI,ioos:station:FWRI:NPD:2,2012-11-14T00:59:00Z,27.3338,-82.5794,10.983,1111122 
FWRI,ioos:station:FWRI:NPD:2,2012-11-14T01:59:00Z,27.3338,-82.5794,5.923,1111122 
FWRI,ioos:station:FWRI:NPD:2,2012-11-14T02:59:00Z,27.3338,-82.5794,6.682,1111122 
FWRI,ioos:station:FWRI:NPD:2,2012-11-14T03:59:00Z,27.3338,-82.5794,4.405,1111122 
FWRI,ioos:station:FWRI:NPD:2,2012-11-14T04:59:00Z,27.3338,-82.5794,3.393,1111122 
FWRI,ioos:station:FWRI:NPD:2,2012-11-14T05:59:00Z,27.3338,-82.5794,5.923,1111122 
FWRI,ioos:station:FWRI:NPD:2,2012-11-14T06:59:00Z,27.3338,-82.5794,4.405,1111122 
FWRI,ioos:station:FWRI:NPD:2,2012-11-14T07:59:00Z,27.3338,-82.5794,4.405,1111122 
FWRI,ioos:station:FWRI:NPD:2,2012-11-14T08:59:00Z,27.3338,-82.5794,3.899,1111122 
FWRI,ioos:station:FWRI:NPD:2,2012-11-14T09:59:00Z,27.3338,-82.5794,6.176,1111122 
FWRI,ioos:station:FWRI:NPD:2,2012-11-14T10:59:00Z,27.3338,-82.5794,8.959,1111122 
FWRI,ioos:station:FWRI:NPD:2,2012-11-14T11:59:00Z,27.3338,-82.5794,11.489,1111122 
FWRI,ioos:station:FWRI:NPD:2,2012-11-14T12:59:00Z,27.3338,-82.5794,12.248,1111122 
FWRI,ioos:station:FWRI:NPD:2,2012-11-14T13:59:00Z,27.3338,-82.5794,13.513,1111122 
FWRI,ioos:station:FWRI:NPD:2,2012-11-14T14:59:00Z,27.3338,-82.5794,9.971,1111122 
FWRI,ioos:station:FWRI:NPD:2,2012-11-14T15:59:00Z,27.3338,-82.5794,7.441,1111122 
FWRI,ioos:station:FWRI:NPD:2,2012-11-14T16:59:00Z,27.3338,-82.5794,6.176,1111122 
FWRI,ioos:station:FWRI:NPD:2,2012-11-14T17:59:00Z,27.3338,-82.5794,3.899,1111122 
FWRI,ioos:station:FWRI:NPD:2,2012-11-14T18:59:00Z,27.3338,-82.5794,4.658,1111122 
FWRI,ioos:station:FWRI:NPD:2,2012-11-14T19:59:00Z,27.3338,-82.5794,4.658,1111122 
FWRI,ioos:station:FWRI:NPD:2,2012-11-14T20:59:00Z,27.3338,-82.5794,1.622,1111122 
FWRI,ioos:station:FWRI:NPD:2,2012-11-14T21:59:00Z,27.3338,-82.5794,5.67,1111122 
FWRI,ioos:station:FWRI:NPD:2,2012-11-14T22:59:00Z,27.3338,-82.5794,8.453,1111122 
FWRI,ioos:station:FWRI:NPD:2,2012-11-14T23:59:00Z,27.3338,-82.5794,7.694,1111122 
FWRI,ioos:station:FWRI:NPD:2,2012-11-15T00:59:00Z,27.3338,-82.5794,7.188,1111122 
FWRI,ioos:station:FWRI:NPD:2,2012-11-15T01:59:00Z,27.3338,-82.5794,7.441,1111122 
FWRI,ioos:station:FWRI:NPD:2,2012-11-15T02:59:00Z,27.3338,-82.5794,6.176,1111122 
FWRI,ioos:station:FWRI:NPD:2,2012-11-15T03:59:00Z,27.3338,-82.5794,5.923,1111122 
FWRI,ioos:station:FWRI:NPD:2,2012-11-15T04:59:00Z,27.3338,-82.5794,2.634,1111122 
FWRI,ioos:station:FWRI:NPD:2,2012-11-15T05:59:00Z,27.3338,-82.5794,4.152,1111122 
FWRI,ioos:station:FWRI:NPD:2,2012-11-15T06:59:00Z,27.3338,-82.5794,4.911,1111122 
FWRI,ioos:station:FWRI:NPD:2,2012-11-15T07:59:00Z,27.3338,-82.5794,2.887,1111122 
FWRI,ioos:station:FWRI:NPD:2,2012-11-15T08:59:00Z,27.3338,-82.5794,4.152,1111122 
FWRI,ioos:station:FWRI:NPD:2,2012-11-15T09:59:00Z,27.3338,-82.5794,3.14,1111122 
FWRI,ioos:station:FWRI:NPD:2,2012-11-15T10:59:00Z,27.3338,-82.5794,7.441,1111122 
FWRI,ioos:station:FWRI:NPD:2,2012-11-15T11:59:00Z,27.3338,-82.5794,9.718,1111122 
FWRI,ioos:station:FWRI:NPD:2,2012-11-15T12:59:00Z,27.3338,-82.5794,9.465,1111122 
FWRI,ioos:station:FWRI:NPD:2,2012-11-15T13:59:00Z,27.3338,-82.5794,9.212,1111122 
FWRI,ioos:station:FWRI:NPD:2,2012-11-15T14:59:00Z,27.3338,-82.5794,11.236,1111122 
FWRI,ioos:station:FWRI:NPD:2,2012-11-15T15:59:00Z,27.3338,-82.5794,11.742,1111122 
FWRI,ioos:station:FWRI:NPD:2,2012-11-15T16:59:00Z,27.3338,-82.5794,6.176,1111122 
FWRI,ioos:station:FWRI:NPD:2,2012-11-15T17:59:00Z,27.3338,-82.5794,6.429,1111122 
FWRI,ioos:station:FWRI:NPD:2,2012-11-15T18:59:00Z,27.3338,-82.5794,4.405,1111122 
FWRI,ioos:station:FWRI:NPD:2,2012-11-15T19:59:00Z,27.3338,-82.5794,3.646,1111122 
FWRI,ioos:station:FWRI:NPD:2,2012-11-15T20:59:00Z,27.3338,-82.5794,5.164,1111122 
FWRI,ioos:station:FWRI:NPD:2,2012-11-15T21:59:00Z,27.3338,-82.5794,5.923,1111122 
FWRI,ioos:station:FWRI:NPD:2,2012-11-15T22:59:00Z,27.3338,-82.5794,5.164,1111122 
FWRI,ioos:station:FWRI:NPD:2,2012-11-15T23:59:00Z,27.3338,-82.5794,5.923,1111122 
FWRI,ioos:station:FWRI:NPD:2,2012-11-16T00:59:00Z,27.3338,-82.5794,11.742,1111122 
FWRI,ioos:station:FWRI:NPD:2,2012-11-16T01:59:00Z,27.3338,-82.5794,8.453,1111122 
FWRI,ioos:station:FWRI:NPD:2,2012-11-16T02:59:00Z,27.3338,-82.5794,4.911,1111122 
FWRI,ioos:station:FWRI:NPD:2,2012-11-16T03:59:00Z,27.3338,-82.5794,6.682,1111122 
FWRI,ioos:station:FWRI:NPD:2,2012-11-16T04:59:00Z,27.3338,-82.5794,5.164,1111122 
FWRI,ioos:station:FWRI:NPD:2,2012-11-16T05:59:00Z,27.3338,-82.5794,4.658,1111122 
FWRI,ioos:station:FWRI:NPD:2,2012-11-16T06:59:00Z,27.3338,-82.5794,2.887,1111122 
FWRI,ioos:station:FWRI:NPD:2,2012-11-16T07:59:00Z,27.3338,-82.5794,4.911,1111122 
FWRI,ioos:station:FWRI:NPD:2,2012-11-16T08:59:00Z,27.3338,-82.5794,3.393,1111122 
FWRI,ioos:station:FWRI:NPD:2,2012-11-16T09:59:00Z,27.3338,-82.5794,3.393,1111122 
FWRI,ioos:station:FWRI:NPD:2,2012-11-16T10:59:00Z,27.3338,-82.5794,6.682,1111122 
FWRI,ioos:station:FWRI:NPD:2,2012-11-16T11:59:00Z,27.3338,-82.5794,7.694,1111122 
FWRI,ioos:station:FWRI:NPD:2,2012-11-16T12:59:00Z,27.3338,-82.5794,9.465,1111122 
FWRI,ioos:station:FWRI:NPD:2,2012-11-16T13:59:00Z,27.3338,-82.5794,10.477,1111122 
FWRI,ioos:station:FWRI:NPD:2,2012-11-16T15:59:00Z,27.3338,-82.5794,9.971,1111122 
FWRI,ioos:station:FWRI:NPD:2,2012-11-16T16:59:00Z,27.3338,-82.5794,13.007,1111122 
FWRI,ioos:station:FWRI:NPD:2,2012-11-16T17:59:00Z,27.3338,-82.5794,7.694,1111122 
FWRI,ioos:station:FWRI:NPD:2,2012-11-16T18:59:00Z,27.3338,-82.5794,7.694,1111122 
FWRI,ioos:station:FWRI:NPD:2,2012-11-16T19:59:00Z,27.3338,-82.5794,6.935,1111122 
FWRI,ioos:station:FWRI:NPD:2,2012-11-16T20:59:00Z,27.3338,-82.5794,5.923,1111122 
FWRI,ioos:station:FWRI:NPD:2,2012-11-16T21:59:00Z,27.3338,-82.5794,6.682,1111122 
FWRI,ioos:station:FWRI:NPD:2,2012-11-16T22:59:00Z,27.3338,-82.5794,6.682,1111122 
FWRI,ioos:station:FWRI:NPD:2,2012-11-16T23:59:00Z,27.3338,-82.5794,8.453,1111122 
FWRI,ioos:station:FWRI:NPD:2,2012-11-17T00:59:00Z,27.3338,-82.5794,8.2,1111122 
FWRI,ioos:station:FWRI:NPD:2,2012-11-17T01:59:00Z,27.3338,-82.5794,6.682,1111122 
FWRI,ioos:station:FWRI:NPD:2,2012-11-17T02:59:00Z,27.3338,-82.5794,6.682,1111122 
FWRI,ioos:station:FWRI:NPD:2,2012-11-17T03:59:00Z,27.3338,-82.5794,4.911,1111122 
FWRI,ioos:station:FWRI:NPD:2,2012-11-17T04:59:00Z,27.3338,-82.5794,3.646,1111122 
FWRI,ioos:station:FWRI:NPD:2,2012-11-17T05:59:00Z,27.3338,-82.5794,4.911,1111122 
FWRI,ioos:station:FWRI:NPD:2,2012-11-17T06:59:00Z,27.3338,-82.5794,3.646,1111122 
FWRI,ioos:station:FWRI:NPD:2,2012-11-17T07:59:00Z,27.3338,-82.5794,3.393,1111122 
FWRI,ioos:station:FWRI:NPD:2,2012-11-17T08:59:00Z,27.3338,-82.5794,2.381,1111122 
FWRI,ioos:station:FWRI:NPD:2,2012-11-17T09:59:00Z,27.3338,-82.5794,4.405,1111122 
FWRI,ioos:station:FWRI:NPD:2,2012-11-17T10:59:00Z,27.3338,-82.5794,3.646,1111122 
FWRI,ioos:station:FWRI:NPD:2,2012-11-17T11:59:00Z,27.3338,-82.5794,9.465,1111122 
FWRI,ioos:station:FWRI:NPD:2,2012-11-17T12:59:00Z,27.3338,-82.5794,11.489,1111122 
FWRI,ioos:station:FWRI:NPD:2,2012-11-17T13:59:00Z,27.3338,-82.5794,13.513,1111122 
FWRI,ioos:station:FWRI:NPD:2,2012-11-17T14:59:00Z,27.3338,-82.5794,13.007,1111122 
FWRI,ioos:station:FWRI:NPD:2,2012-11-17T15:59:00Z,27.3338,-82.5794,11.236,1111122 
FWRI,ioos:station:FWRI:NPD:2,2012-11-17T16:59:00Z,27.3338,-82.5794,12.248,1111122 
FWRI,ioos:station:FWRI:NPD:2,2012-11-17T17:59:00Z,27.3338,-82.5794,10.73,1111122 
FWRI,ioos:station:FWRI:NPD:2,2012-11-17T18:59:00Z,27.3338,-82.5794,10.224,1111122 
FWRI,ioos:station:FWRI:NPD:2,2012-11-17T19:59:00Z,27.3338,-82.5794,6.935,1111122 
FWRI,ioos:station:FWRI:NPD:2,2012-11-17T20:59:00Z,27.3338,-82.5794,5.417,1111122 
FWRI,ioos:station:FWRI:NPD:2,2012-11-17T21:59:00Z,27.3338,-82.5794,5.417,1111122 
FWRI,ioos:station:FWRI:NPD:2,2012-11-17T22:59:00Z,27.3338,-82.5794,5.67,1111122 
FWRI,ioos:station:FWRI:NPD:2,2012-11-17T23:59:00Z,27.3338,-82.5794,7.694,1111122 
FWRI,ioos:station:FWRI:NPD:2,2012-11-18T00:59:00Z,27.3338,-82.5794,5.67,1111122 
FWRI,ioos:station:FWRI:NPD:2,2012-11-18T01:59:00Z,27.3338,-82.5794,5.67,1111122 
FWRI,ioos:station:FWRI:NPD:2,2012-11-18T02:59:00Z,27.3338,-82.5794,7.188,1111122 
FWRI,ioos:station:FWRI:NPD:2,2012-11-18T03:59:00Z,27.3338,-82.5794,3.646,1111122 
FWRI,ioos:station:FWRI:NPD:2,2012-11-18T04:59:00Z,27.3338,-82.5794,3.393,1111122 
FWRI,ioos:station:FWRI:NPD:2,2012-11-18T05:59:00Z,27.3338,-82.5794,4.152,1111122 
FWRI,ioos:station:FWRI:NPD:2,2012-11-18T06:59:00Z,27.3338,-82.5794,3.899,1111122 
FWRI,ioos:station:FWRI:NPD:2,2012-11-18T07:59:00Z,27.3338,-82.5794,5.417,1111122 
FWRI,ioos:station:FWRI:NPD:2,2012-11-18T08:59:00Z,27.3338,-82.5794,3.899,1111122 
FWRI,ioos:station:FWRI:NPD:2,2012-11-18T09:59:00Z,27.3338,-82.5794,3.14,1111122 
FWRI,ioos:station:FWRI:NPD:2,2012-11-18T10:59:00Z,27.3338,-82.5794,2.128,1111122 
FWRI,ioos:station:FWRI:NPD:2,2012-11-18T11:59:00Z,27.3338,-82.5794,6.682,1111122 
FWRI,ioos:station:FWRI:NPD:2,2012-11-18T12:59:00Z,27.3338,-82.5794,8.2,1111122 
FWRI,ioos:station:FWRI:NPD:2,2012-11-18T13:59:00Z,27.3338,-82.5794,9.212,1111122 
FWRI,ioos:station:FWRI:NPD:2,2012-11-18T14:59:00Z,27.3338,-82.5794,11.489,1111122 
FWRI,ioos:station:FWRI:NPD:2,2012-11-18T15:59:00Z,27.3338,-82.5794,10.224,1111122 
FWRI,ioos:station:FWRI:NPD:2,2012-11-18T16:59:00Z,27.3338,-82.5794,9.971,1111122 
FWRI,ioos:station:FWRI:NPD:2,2012-11-18T17:59:00Z,27.3338,-82.5794,9.212,1111122 
FWRI,ioos:station:FWRI:NPD:2,2012-11-18T18:59:00Z,27.3338,-82.5794,9.212,1111122 
FWRI,ioos:station:FWRI:NPD:2,2012-11-18T19:59:00Z,27.3338,-82.5794,8.2,1111122 
FWRI,ioos:station:FWRI:NPD:2,2012-11-18T20:59:00Z,27.3338,-82.5794,6.935,1111122 
FWRI,ioos:station:FWRI:NPD:2,2012-11-18T21:59:00Z,27.3338,-82.5794,9.971,1111122 
FWRI,ioos:station:FWRI:NPD:2,2012-11-18T22:59:00Z,27.3338,-82.5794,7.694,1111122 
FWRI,ioos:station:FWRI:NPD:2,2012-11-18T23:59:00Z,27.3338,-82.5794,8.2,1111122 
FWRI,ioos:station:FWRI:NPD:2,2012-11-19T00:59:00Z,27.3338,-82.5794,7.188,1111122 
FWRI,ioos:station:FWRI:NPD:2,2012-11-19T01:59:00Z,27.3338,-82.5794,6.682,1111122 
FWRI,ioos:station:FWRI:NPD:2,2012-11-19T02:59:00Z,27.3338,-82.5794,7.694,1111122 
FWRI,ioos:station:FWRI:NPD:2,2012-11-19T03:59:00Z,27.3338,-82.5794,7.441,1111122 
FWRI,ioos:station:FWRI:NPD:2,2012-11-19T04:59:00Z,27.3338,-82.5794,5.417,1111122 
FWRI,ioos:station:FWRI:NPD:2,2012-11-19T05:59:00Z,27.3338,-82.5794,4.658,1111122 
FWRI,ioos:station:FWRI:NPD:2,2012-11-19T06:59:00Z,27.3338,-82.5794,5.417,1111122 
FWRI,ioos:station:FWRI:NPD:2,2012-11-19T07:59:00Z,27.3338,-82.5794,3.646,1111122 
FWRI,ioos:station:FWRI:NPD:2,2012-11-19T08:59:00Z,27.3338,-82.5794,4.658,1111122 
FWRI,ioos:station:FWRI:NPD:2,2012-11-19T09:59:00Z,27.3338,-82.5794,6.935,1111122 
FWRI,ioos:station:FWRI:NPD:2,2012-11-19T10:59:00Z,27.3338,-82.5794,3.14,1111122 
FWRI,ioos:station:FWRI:NPD:2,2012-11-19T11:59:00Z,27.3338,-82.5794,3.646,1111122 
FWRI,ioos:station:FWRI:NPD:2,2012-11-19T12:59:00Z,27.3338,-82.5794,4.911,1111122 
FWRI,ioos:station:FWRI:NPD:2,2012-11-19T13:59:00Z,27.3338,-82.5794,6.682,1111122 
FWRI,ioos:station:FWRI:NPD:2,2012-11-19T14:59:00Z,27.3338,-82.5794,5.923,1111122 
FWRI,ioos:station:FWRI:NPD:2,2012-11-19T15:59:00Z,27.3338,-82.5794,8.453,1111122 